Location: Risskov
(56.1972°N, 10.2480°E)
Time: 13:21:10
(UTC+00:00)

Cosmos 2360 Rocket - Pass Details

Date: 05 July 2020
Orbit: 832 x 847 km, 71.0° (Epoch: 05 August)

Event Time Altitude Azimuth Distance (km) Brightness Sun altitude
Rises 22:18:16 0° 248° (WSW) 3,392 5.3 -9.9°
Reaches altitude 10° 22:20:55 10° 257° (WSW) 2,462 4.7 -10.0°
Maximum altitude 22:26:06 36° 323° (NW) 1,322 3.9 -10.2°
Drops below altitude 10° 22:31:19 10° 29° (NNE) 2,480 5.4 -10.4°
Sets 22:34:00 0° 39° (NE) 3,419 6.0 -10.4°
